Weather History for West Palm Beach, FL

Change the Weather History Date:

Thursday, December 1, 2011

  Actual Average Record
Temperature  
Mean Temperature 63 °F 70 °F  
Max Temperature 75 °F 78 °F 88 °F (1940)
Min Temperature 51 °F 63 °F 41 °F (1924)
Degree Days  
Heating Degree Days 2 1  
Month to date heating degree days 2 1  
Since 1 July heating degree days 3 13  
Cooling Degree Days 0 6  
Month to date cooling degree days 0 6  
Year to date cooling degree days 4570 3872  
Growing Degree Days 12 (Base 50)    
Moisture  
Dew Point 57 °F    
Average Humidity 77    
Maximum Humidity 100    
Minimum Humidity 53    
Precipitation  
Precipitation T in 0.11 in 2.70 in (2013)
Month to date precipitation T 0.11  
Year to date precipitation 46.99 59.06  
Snow  
Snow 0.00 in - - ()
Month to date snowfall 0.0  
Since 1 July snowfall 0.0  
Snow Depth 0.00 in    
Sea Level Pressure  
Sea Level Pressure 30.10 in    
Wind  
Wind Speed 11 mph (North)    
Max Wind Speed 21 mph    
Max Gust Speed 26 mph    
Visibility 10 miles    
Events Rain    
T = Trace of Precipitation, MM = Missing Value Source: NWS Daily Summary

Daily Weather History Graph

Daily Weather History Graph

Search for Another Location

Airport:

Trip Planner

Search our weather history database for the weather conditions in past years. The results will help you decide how hot, cold, wet, or windy it might be!

Date:

Astronomy

Dec. 01, 2011 Rise Set
Actual Time 6:51 AM EST 5:27 PM EST
Civil Twilight 6:26 AM EST 5:52 PM EST
Nautical Twilight 5:57 AM EST 6:20 PM EST
Astronomical Twilight 5:29 AM EST 6:48 PM EST
Moon 11:58 AM EST (12/1) 11:58 PM EST (12/1)
Length of Visible Light 11h 25m
Length of Day
10h 35m
Waxing Crescent, 43% of the Moon is Illuminated
Dec 1
Waxing Crescent
Dec 2
First Quarter
Dec 10
Full
Dec 17
Last Quarter
Dec 24
New

Hourly Weather History & Observations

Time (EST) Temp. Dew Point Humidity Pressure Visibility Wind Dir Wind Speed Gust Speed Precip Events Conditions
12:53 AM 57.0 °F 54.0 °F 89% 30.04 in 10.0 mi NW 11.5 mph - N/A   Clear
1:53 AM 55.9 °F 53.1 °F 90% 30.03 in 10.0 mi NW 12.7 mph - N/A   Clear
2:53 AM 54.0 °F 52.0 °F 93% 30.04 in 10.0 mi NW 13.8 mph 20.7 mph N/A   Scattered Clouds
3:53 AM 53.1 °F 51.1 °F 93% 30.03 in 10.0 mi NW 10.4 mph - N/A   Scattered Clouds
4:53 AM 52.0 °F 51.1 °F 97% 30.04 in 10.0 mi NW 8.1 mph - N/A   Partly Cloudy
5:53 AM 53.1 °F 51.1 °F 93% 30.06 in 10.0 mi NW 6.9 mph - N/A   Partly Cloudy
6:53 AM 52.0 °F 51.1 °F 97% 30.08 in 10.0 mi NW 4.6 mph - N/A   Partly Cloudy
7:53 AM 55.0 °F 53.1 °F 93% 30.10 in 10.0 mi NNW 9.2 mph - N/A   Scattered Clouds
8:53 AM 60.1 °F 55.9 °F 86% 30.11 in 10.0 mi NNW 9.2 mph - N/A   Scattered Clouds
9:53 AM 66.9 °F 57.9 °F 73% 30.12 in 10.0 mi NNW 9.2 mph - N/A   Scattered Clouds
10:53 AM 70.0 °F 60.1 °F 71% 30.12 in 10.0 mi NNW 11.5 mph - N/A   Mostly Cloudy
11:53 AM 72.0 °F 62.1 °F 71% 30.11 in 10.0 mi North 13.8 mph - N/A   Mostly Cloudy
12:53 PM 73.0 °F 63.0 °F 71% 30.09 in 10.0 mi North 15.0 mph 23.0 mph N/A   Mostly Cloudy
1:53 PM 73.9 °F 63.0 °F 68% 30.08 in 10.0 mi North 16.1 mph - N/A   Mostly Cloudy
2:53 PM 73.9 °F 59.0 °F 59% 30.08 in 10.0 mi NNE 10.4 mph 23.0 mph N/A   Mostly Cloudy
3:53 PM 73.9 °F 59.0 °F 59% 30.09 in 10.0 mi NNE 11.5 mph 20.7 mph N/A   Mostly Cloudy
4:53 PM 72.0 °F 57.0 °F 59% 30.12 in 10.0 mi North 9.2 mph - N/A   Scattered Clouds
5:53 PM 71.1 °F 55.9 °F 59% 30.12 in 10.0 mi NNE 10.4 mph - N/A   Scattered Clouds
6:53 PM 71.1 °F 55.0 °F 57% 30.15 in 10.0 mi NNE 11.5 mph - N/A   Scattered Clouds
7:53 PM 71.1 °F 54.0 °F 55% 30.16 in 10.0 mi NNE 9.2 mph - N/A   Scattered Clouds
8:53 PM 70.0 °F 61.0 °F 73% 30.17 in 10.0 mi East 8.1 mph 17.3 mph 0.00 in   Mostly Cloudy
9:53 PM 70.0 °F 62.1 °F 76% 30.18 in 10.0 mi NNE 17.3 mph 23.0 mph 0.00 in Rain Light Rain
10:53 PM 71.1 °F 60.1 °F 68% 30.17 in 10.0 mi NE 17.3 mph - 0.00 in   Mostly Cloudy
11:53 PM 71.1 °F 57.9 °F 63% 30.17 in 10.0 mi NE 16.1 mph 23.0 mph N/A   Overcast